Cloud_Cover
48 100 100 75 66 79 71 12 1 0 4 0 0 0 0 5 7 33 5 5 5 6 5 35 97 10 98 97 50 100 100 100 100 70 100 82 78 100 18 35 5 80 100 98 83 100 55 5 5
13 100 100 50 99 60 17 21 0 0 0 0 0 0 1 0 4 7 6 5 5 17 16 11 5 5 6 11 96 100 100 100 90 100 97 100 100 100 95 34 98 100 100 100 100 61 5 4 23
5 100 100 100 100 81 6 2 0 0 0 0 0 4 1 21 2 7 5 5 5 5 30 5 2 2 14 6 45 100 99 100 100 65 100 100 100 96 100 100 100 86 98 99 48 78 20 86 100
55 58 100 100 100 98 19 38 0 5 0 2 19 12 3 54 28 13 5 5 13 24 40 75 18 5 25 30 51 61 62 97 99 100 100 100 100 100 100 100 88 99 94 100 100 3 4 0 3
66 59 96 100 100 100 86 4 5 0 4 0 0 24 10 96 39 14 3 5 30 29 12 4 5 5 5 97 86 88 100 76 100 100 100 100 100 100 100 100 100 100 100 62 5 86 6 0 0
84 81 97 100 100 100 100 7 0 1 0 0 0 1 63 93 32 13 24 26 44 35 18 0 1 5 5 100 100 100 96 100 100 100 100 100 76 92 100 100 100 40 42 78 100 7 0 0 0
97 90 36 100 100 100 23 29 1 1 0 0 0 0 26 37 17 18 16 25 24 42 1 2 5 5 83 84 97 100 66 61 100 100 100 43 83 100 100 100 89 100 94 16 2 1 0 0 0
99 30 37 94 100 99 7 5 0 0 0 0 0 0 0 3 6 5 0 2 19 6 0 0 5 5 24 5 5 32 100 100 99 76 5 35 100 24 96 76 5 5 4 0 0 0 0 0 0
85 41 28 5 100 100 14 5 0 0 0 0 2 0 0 0 0 1 0 0 0 1 0 0 0 7 67 100 99 100 77 5 0 2 63 94 51 89 92 15 34 0 0 0 0 0 0 0 0
83 99 19 5 100 100 14 3 0 0 0 0 0 0 0 0 0 0 0 0 0 0 0 30 22 32 34 76 100 100 98 28 48 62 40 71 73 20 0 0 0 0 0 0 0 0 0 0 0
94 100 79 40 66 37 73 63 0 3 4 0 0 0 0 0 0 0 0 0 0 0 0 22 29 41 24 88 55 28 50 21 29 21 34 27 33 0 1 0 0 0 0 1 0 1 0 0 0
99 6 33 60 71 62 100 84 1 5 4 2 5 0 0 0 0 0 0 0 0 0 0 0 2 7 30 21 39 46 33 6 7 29 22 7 3 0 0 0 0 0 0 0 0 0 0 0 0
99 13 89 100 83 100 100 40 83 5 3 0 2 4 0 0 0 0 0 0 0 0 0 1 0 8 35 27 1 18 10 6 28 12 3 0 5 0 0 0 0 0 0 0 0 0 0 0 0
98 50 41 100 100 100 100 83 30 6 5 4 0 4 0 0 0 0 0 0 0 0 0 0 1 14 21 1 23 8 9 10 1 0 0 0 1 0 0 0 0 0 0 0 0 0 4 4 2
100 100 72 100 100 100 63 23 6 1 5 3 0 0 0 0 0 0 0 0 0 0 0 0 0 0 5 0 14 11 19 0 0 0 0 0 0 0 0 0 0 0 0 0 0 0 0 1 5
100 100 81 100 90 100 94 89 99 96 3 3 0 0 4 0 0 0 0 0 0 0 0 0 0 0 0 0 1 1 0 0 0 0 0 0 0 0 0 0 0 0 0 0 0 0 0 0 0
76 100 100 100 100 100 100 100 100 98 16 4 0 0 2 0 0 1 0 0 0 0 0 0 0 0 0 1 0 0 0 0 0 0 0 0 0 0 0 0 0 0 0 0 0 1 0 0 0
5 16 100 100 97 100 100 100 91 100 100 74 5 5 30 5 1 0 0 1 0 0 0 0 0 0 0 0 0 15 19 1 0 0 0 0 0 0 0 0 0 0 0 0 1 0 0 0 0
5 0 7 96 100 100 100 100 100 100 100 100 58 88 5 27 4 4 2 0 0 0 0 0 0 0 0 0 4 48 91 26 5 0 0 0 0 0 0 0 0 0 0 1 0 0 5 5 1
5 0 0 93 96 100 100 100 100 100 100 100 100 100 100 41 83 52 2 0 0 0 0 0 0 7 0 0 1 51 73 49 25 2 0 0 0 0 0 0 0 0 0 1 0 5 5 5 5
5 4 0 4 33 59 87 97 100 100 89 100 100 100 100 94 21 2 0 0 0 0 0 0 0 0 4 0 3 16 23 46 45 27 0 0 0 0 0 0 0 0 0 5 0 2 38 73 91
0 0 0 0 1 51 35 92 97 76 31 5 5 5 3 18 1 0 0 0 0 0 0 0 0 0 0 0 4 10 1 2 9 3 0 0 0 0 0 0 0 0 0 5 2 5 36 100 100
0 0 0 0 0 0 0 1 5 0 0 5 5 5 0 6 5 5 0 0 0 0 0 0 0 0 0 0 1 2 0 0 3 0 2 4 0 0 0 0 0 5 5 6 2 40 88 100 98
0 0 0 0 0 0 0 1 4 5 2 44 5 5 5 1 5 5 5 2 0 0 0 0 0 0 0 0 0 0 0 6 1 0 1 1 4 4 0 0 0 0 0 0 4 52 95 100 12
0 0 0 0 0 0 0 0 0 4 0 1 5 5 5 5 4 3 5 5 2 0 0 0 0 0 0 0 0 0 0 0 0 0 1 1 5 69 1 0 0 0 4 0 1 1 75 21 18
0 0 0 0 0 0 0 0 0 0 0 3 5 5 5 7 14 3 2 2 0 1 1 0 0 0 0 0 0 0 0 0 0 0 0 0 58 12 90 5 2 1 4 8 4 42 5 5 5
0 0 0 0 0 0 0 0 0 0 0 0 4 5 5 5 82 46 23 5 4 2 0 5 0 0 0 0 0 0 0 0 0 0 0 0 0 6 100 47 6 76 6 17 9 5 6 99 64
0 0 0 0 0 0 0 0 0 0 0 0 0 0 5 50 9 19 81 83 4 3 5 4 5 0 0 0 0 0 0 0 0 0 0 0 0 0 0 98 44 100 90 9 50 3 32 18 65
0 0 0 0 0 0 0 0 0 0 0 0 0 0 0 1 97 80 20 97 45 1 2 0 80 25 0 0 0 0 0 0 0 0 0 0 0 0 0 0 1 52 97 100 78 5 6 51 51
0 0 0 0 0 0 0 0 0 0 0 0 0 0 0 0 0 23 77 24 93 14 4 1 9 100 61 4 0 0 0 0 0 0 0 0 0 0 0 4 0 4 4 7 15 4 4 4 5